STARLINK-34187, 63956

Orbit data source: Space-Track

STARLINK-34187, 63956 is a payload satellite owned by SpaceX/Seattle (US) in LEO that was launched on Tue, 13 May 2025 UTC via an FALCON 9 launch vehicle from the Air Force Eastern Test Range (AFETR). Payload-class satellites include a variety of spacecraft equipped with specific instruments for various scientific and technological missions. These include communications satellites like Starlink; space stations such as the ISS; scientific satellites like the Hubble; Earth observation satellites from companies like Planet Labs, Umbra, and HawkEye 360; GPS; miniature CubeSats for education and research; and military/defense satellites.

Loading next visibility...
Identifier
63956, 2025-099E
Orbit
LEO
Country
Flag of USUS
Related business
Manufacturer
SpaceX/Seattle
Mission
Operational Commercial Communications
Bus & Motor
STARLINK V2MO, Unknown motor
Mass
575 kg wet, ~530 kg dry
Launch date (UTC)
2025-05-13 (11 months ago)
Launch vehicle
FALCON 9
Launch site
Air Force Eastern Test Range (AFETR)
Object type
Payload
Rocket body
Debris
Shape & HBR
Box + 2 Pan, 17.7 m
Radar Cross Section
36.964 m², Large (>1 m²)

Expand to show TLE details & history
Last TLE update: 13 hours ago

TLE from 13 hours ago
0 STARLINK-34187
1 63956U 25099E   26093.99609065  .00068065  00000-0  24619-2 0  9997
2 63956  43.0011  33.5621 0001914 245.4896 114.5757 15.27556794 51202
Epoch: 2026-04-03T23:54Z
TLE epoch observation values (Epoch: 2026-04-03T23:54:22.232Z)
Latitude
0.00005°
Longitude
-157.35269°
Altitude
483.44 km
Speed
7.625 km/s
True Right ascension
02h 14m 14s
True Declination
0° 00' 00"
Sunlit
Object was in daylight at epoch
Visualization orbit readout
Latitude
Unknown
Longitude
Unknown
Altitude
Unknown
Speed
Unknown
Apparent Right ascension
Unknown
Apparent Declination
Unknown
Sunlit
N/A
Visualization observer readout
Local Sidereal Time
19:13:37
Azimuth
Unknown
Elevation
Unknown
Doppler factor
Unknown
Orbital elements
Apogee altitude
486.377 km
Perigee altitude
483.75 km
Semi-major axis
6,863.201 km
Eccentricity
0.00019
Inclination
43.0011°
RAAN
33.5621°
Arg. of periapsis
245.4896°
True anomaly
114.59564°
Mean anomaly
114.5757°
Eccentric anomaly
114.58567°
Mean motion
3.81727 °/min
Orbital period
94.31 mins
BSTAR
0.0024619
Loading maneuver chart data...
Computing Atmospheric mass density...
Loading historical data...
Loading historical data...
Loading historical data...
Loading historical data...
Loading historical data...
Loading historical data...
Loading historical data...

Documentation

Showing up to 5 results
|